Time,TemperatureF,DewpointF,PressureIn,WindDirection,WindDirectionDegrees,WindSpeedMPH,WindSpeedGustMPH,Humidity,HourlyPrecipIn,Conditions,Clouds,dailyrainin,SoftwareType,DateUTC
2013-09-26 00:14:00,62.0,60.0,29.88,NE,35,0.0,-999.0,94,-99.99,,,-99.99,,2013-09-26 04:14:00,
2013-09-26 00:24:00,62.0,60.0,29.88,NNE,33,0.0,-999.0,94,-99.99,,,-99.99,,2013-09-26 04:24:00,
2013-09-26 00:54:00,62.0,60.0,29.88,NNE,12,0.0,-999.0,94,-99.99,,,-99.99,,2013-09-26 04:54:00,
2013-09-26 01:13:00,62.0,60.0,29.88,NNW,346,0.0,-999.0,93,-99.99,,,-99.99,,2013-09-26 05:13:00,
2013-09-26 01:23:00,62.0,60.0,29.88,NNW,345,0.0,-999.0,93,-99.99,,,-99.99,,2013-09-26 05:23:00,
2013-09-26 01:43:00,62.0,60.0,29.88,NNW,345,0.0,-999.0,93,-99.99,,,-99.99,,2013-09-26 05:43:00,
2013-09-26 01:52:00,62.0,60.0,29.87,NNW,346,0.0,-999.0,93,-99.99,,,-99.99,,2013-09-26 05:52:00,
2013-09-26 02:13:00,62.0,60.0,29.86,NNE,17,0.0,-999.0,94,-99.99,,,-99.99,,2013-09-26 06:13:00,
2013-09-26 02:22:00,62.0,60.0,29.86,NNE,14,0.0,-999.0,93,-99.99,,,-99.99,,2013-09-26 06:22:00,
2013-09-26 02:42:00,62.0,60.0,29.87,North,11,1.0,-999.0,93,-99.99,,,-99.99,,2013-09-26 06:42:00,
2013-09-26 02:53:00,62.0,60.0,29.87,NE,54,0.0,-999.0,93,-99.99,,,-99.99,,2013-09-26 06:53:00,
2013-09-26 03:12:00,62.0,60.0,29.87,North,350,0.0,-999.0,92,-99.99,,,-99.99,,2013-09-26 07:12:00,
2013-09-26 03:22:00,61.0,58.0,29.87,North,5,0.0,-999.0,91,-99.99,,,-99.99,,2013-09-26 07:22:00,
2013-09-26 03:42:00,61.0,58.0,29.86,NNW,348,0.0,-999.0,91,-99.99,,,-99.99,,2013-09-26 07:42:00,
2013-09-26 03:53:00,61.0,58.0,29.86,NNW,348,0.0,-999.0,91,-99.99,,,-99.99,,2013-09-26 07:53:00,
2013-09-26 04:11:00,61.0,59.0,29.86,NNW,348,0.0,-999.0,92,-99.99,,,-99.99,,2013-09-26 08:11:00,
2013-09-26 04:22:00,61.0,59.0,29.86,NNW,348,0.0,-999.0,92,-99.99,,,-99.99,,2013-09-26 08:22:00,
2013-09-26 04:42:00,61.0,59.0,29.86,NNW,348,0.0,-999.0,93,-99.99,,,-99.99,,2013-09-26 08:42:00,
2013-09-26 04:52:00,61.0,59.0,29.86,NNW,348,0.0,-999.0,93,-99.99,,,-99.99,,2013-09-26 08:52:00,
2013-09-26 05:11:00,61.0,59.0,29.86,NNW,348,0.0,-999.0,93,-99.99,,,-99.99,,2013-09-26 09:11:00,
2013-09-26 05:22:00,61.0,59.0,29.86,NNW,348,0.0,-999.0,93,-99.99,,,-99.99,,2013-09-26 09:22:00,
2013-09-26 05:43:00,61.0,59.0,29.86,NNW,348,0.0,-999.0,93,-99.99,,,-99.99,,2013-09-26 09:43:00,
2013-09-26 05:53:00,61.0,59.0,29.86,North,349,0.0,-999.0,93,-99.99,,,-99.99,,2013-09-26 09:53:00,
2013-09-26 06:12:00,61.0,59.0,29.87,North,349,0.0,-999.0,93,-99.99,,,-99.99,,2013-09-26 10:12:00,
2013-09-26 06:23:00,61.0,59.0,29.87,North,355,0.0,-999.0,93,-99.99,,,-99.99,,2013-09-26 10:23:00,
2013-09-26 06:42:00,60.0,58.0,29.88,North,355,0.0,-999.0,93,-99.99,,,-99.99,,2013-09-26 10:42:00,
2013-09-26 06:53:00,60.0,58.0,29.88,North,355,0.0,-999.0,93,-99.99,,,-99.99,,2013-09-26 10:53:00,
2013-09-26 07:12:00,60.0,58.0,29.89,North,355,0.0,-999.0,93,-99.99,,,-99.99,,2013-09-26 11:12:00,
2013-09-26 07:22:00,60.0,58.0,29.89,North,10,0.0,-999.0,93,-99.99,,,-99.99,,2013-09-26 11:22:00,
2013-09-26 07:42:00,60.0,58.0,29.90,NNE,33,0.0,-999.0,93,-99.99,,,-99.99,,2013-09-26 11:42:00,
2013-09-26 07:52:00,59.0,57.0,29.90,NNE,33,0.0,-999.0,93,-99.99,,,-99.99,,2013-09-26 11:52:00,
2013-09-26 08:12:00,60.0,58.0,29.91,NNE,29,0.0,-999.0,93,-99.99,,,-99.99,,2013-09-26 12:12:00,
2013-09-26 08:22:00,60.0,58.0,29.91,NNE,29,0.0,-999.0,92,-99.99,,,-99.99,,2013-09-26 12:22:00,
2013-09-26 08:42:00,61.0,59.0,29.91,NE,38,0.0,-999.0,92,-99.99,,,-99.99,,2013-09-26 12:42:00,
2013-09-26 08:52:00,61.0,58.0,29.92,ENE,67,0.0,-999.0,90,-99.99,,,-99.99,,2013-09-26 12:52:00,
2013-09-26 09:12:00,62.0,59.0,29.93,NE,38,0.0,-999.0,89,-99.99,,,-99.99,,2013-09-26 13:12:00,
2013-09-26 09:22:00,62.0,58.0,29.93,NE,49,0.0,-999.0,88,-99.99,,,-99.99,,2013-09-26 13:22:00,
2013-09-26 09:42:00,63.0,59.0,29.93,NNW,340,0.0,-999.0,87,-99.99,,,-99.99,,2013-09-26 13:42:00,
2013-09-26 09:52:00,64.0,59.0,29.94,NE,42,1.0,-999.0,85,-99.99,,,-99.99,,2013-09-26 13:52:00,
2013-09-26 10:11:00,64.0,59.0,29.95,NNE,20,0.0,-999.0,83,-99.99,,,-99.99,,2013-09-26 14:11:00,
2013-09-26 10:22:00,64.0,59.0,29.95,North,11,1.0,-999.0,84,-99.99,,,-99.99,,2013-09-26 14:22:00,
2013-09-26 10:42:00,65.0,60.0,29.96,ENE,64,0.0,-999.0,85,-99.99,,,-99.99,,2013-09-26 14:42:00,
2013-09-26 10:52:00,65.0,59.0,29.96,NW,322,1.0,-999.0,82,-99.99,,,-99.99,,2013-09-26 14:52:00,
2013-09-26 11:11:00,66.0,60.0,29.96,North,5,1.0,-999.0,81,-99.99,,,-99.99,,2013-09-26 15:11:00,
2013-09-26 11:22:00,68.0,61.0,29.95,ENE,64,1.0,-999.0,78,-99.99,,,-99.99,,2013-09-26 15:22:00,
2013-09-26 11:44:00,68.0,62.0,29.96,NE,46,1.0,-999.0,81,-99.99,,,-99.99,,2013-09-26 15:44:00,
2013-09-26 11:53:00,69.0,62.0,29.95,ESE,111,1.0,-999.0,79,-99.99,,,-99.99,,2013-09-26 15:53:00,
2013-09-26 12:13:00,70.0,63.0,29.95,NNW,346,0.0,-999.0,78,-99.99,,,-99.99,,2013-09-26 16:13:00,
2013-09-26 12:24:00,69.0,61.0,29.95,NE,43,1.0,-999.0,77,-99.99,,,-99.99,,2013-09-26 16:24:00,
2013-09-26 12:43:00,70.0,62.0,29.95,ENE,70,1.0,-999.0,75,-99.99,,,-99.99,,2013-09-26 16:43:00,
2013-09-26 12:53:00,71.0,63.0,29.95,ENE,71,2.0,-999.0,75,-99.99,,,-99.99,,2013-09-26 16:53:00,
2013-09-26 13:12:00,71.0,62.0,29.95,SW,234,1.0,-999.0,73,-99.99,,,-99.99,,2013-09-26 17:12:00,
2013-09-26 13:23:00,72.0,62.0,29.95,NE,40,1.0,-999.0,72,-99.99,,,-99.99,,2013-09-26 17:23:00,
2013-09-26 13:52:00,72.0,62.0,29.94,ENE,63,1.0,-999.0,70,-99.99,,,-99.99,,2013-09-26 17:52:00,
2013-09-26 14:13:00,72.0,61.0,29.94,North,10,1.0,-999.0,69,-99.99,,,-99.99,,2013-09-26 18:13:00,
2013-09-26 14:22:00,72.0,61.0,29.93,NE,42,1.0,-999.0,68,-99.99,,,-99.99,,2013-09-26 18:22:00,
2013-09-26 14:42:00,73.0,62.0,29.93,NE,34,1.0,-999.0,68,-99.99,,,-99.99,,2013-09-26 18:42:00,
2013-09-26 14:52:00,73.0,62.0,29.93,North,355,1.0,-999.0,69,-99.99,,,-99.99,,2013-09-26 18:52:00,
2013-09-26 15:12:00,73.0,61.0,29.93,NNE,30,2.0,-999.0,66,-99.99,,,-99.99,,2013-09-26 19:12:00,
2013-09-26 15:22:00,73.0,61.0,29.92,ENE,76,2.0,-999.0,67,-99.99,,,-99.99,,2013-09-26 19:22:00,
2013-09-26 15:44:00,75.0,62.0,29.92,NNE,26,1.0,-999.0,63,-99.99,,,-99.99,,2013-09-26 19:44:00,
2013-09-26 15:52:00,75.0,61.0,29.92,East,85,2.0,-999.0,61,-99.99,,,-99.99,,2013-09-26 19:52:00,
2013-09-26 16:12:00,74.0,60.0,29.92,NE,49,3.0,-999.0,61,-99.99,,,-99.99,,2013-09-26 20:12:00,
2013-09-26 16:23:00,75.0,60.0,29.92,ENE,58,1.0,-999.0,59,-99.99,,,-99.99,,2013-09-26 20:23:00,
2013-09-26 16:43:00,75.0,59.0,29.92,NE,39,3.0,-999.0,57,-99.99,,,-99.99,,2013-09-26 20:43:00,
2013-09-26 16:52:00,74.0,59.0,29.92,NNW,348,2.0,-999.0,60,-99.99,,,-99.99,,2013-09-26 20:52:00,
2013-09-26 17:12:00,75.0,61.0,29.92,East,84,1.0,-999.0,62,-99.99,,,-99.99,,2013-09-26 21:12:00,
2013-09-26 17:23:00,75.0,60.0,29.92,NE,45,3.0,-999.0,59,-99.99,,,-99.99,,2013-09-26 21:23:00,
2013-09-26 17:44:00,75.0,60.0,29.93,North,355,1.0,-999.0,59,-99.99,,,-99.99,,2013-09-26 21:44:00,
2013-09-26 17:54:00,75.0,60.0,29.93,East,82,1.0,-999.0,59,-99.99,,,-99.99,,2013-09-26 21:54:00,
2013-09-26 18:14:00,75.0,60.0,29.93,NNE,29,0.0,-999.0,60,-99.99,,,-99.99,,2013-09-26 22:14:00,
2013-09-26 18:24:00,74.0,59.0,29.93,North,355,1.0,-999.0,60,-99.99,,,-99.99,,2013-09-26 22:24:00,
2013-09-26 18:43:00,74.0,60.0,29.93,NNE,24,1.0,-999.0,61,-99.99,,,-99.99,,2013-09-26 22:43:00,
2013-09-26 18:54:00,73.0,60.0,29.93,NNE,23,1.0,-999.0,63,-99.99,,,-99.99,,2013-09-26 22:54:00,
2013-09-26 19:12:00,73.0,60.0,29.94,NE,35,1.0,-999.0,63,-99.99,,,-99.99,,2013-09-26 23:12:00,
2013-09-26 19:23:00,72.0,59.0,29.94,North,360,0.0,-999.0,64,-99.99,,,-99.99,,2013-09-26 23:23:00,
2013-09-26 19:53:00,71.0,59.0,29.95,NNE,20,0.0,-999.0,66,-99.99,,,-99.99,,2013-09-26 23:53:00,
2013-09-26 20:22:00,70.0,59.0,29.95,NNE,14,0.0,-999.0,69,-99.99,,,-99.99,,2013-09-27 00:22:00,
2013-09-26 20:43:00,69.0,59.0,29.95,NNE,21,0.0,-999.0,71,-99.99,,,-99.99,,2013-09-27 00:43:00,
2013-09-26 20:52:00,68.0,59.0,29.96,NNE,23,0.0,-999.0,73,-99.99,,,-99.99,,2013-09-27 00:52:00,
2013-09-26 21:12:00,68.0,60.0,29.96,NE,39,0.0,-999.0,75,-99.99,,,-99.99,,2013-09-27 01:12:00,
2013-09-26 21:23:00,67.0,59.0,29.97,NNE,20,0.0,-999.0,76,-99.99,,,-99.99,,2013-09-27 01:23:00,
2013-09-26 21:42:00,66.0,59.0,29.97,NE,46,0.0,-999.0,77,-99.99,,,-99.99,,2013-09-27 01:42:00,
2013-09-26 21:52:00,66.0,59.0,29.98,NE,55,0.0,-999.0,77,-99.99,,,-99.99,,2013-09-27 01:52:00,
2013-09-26 22:12:00,66.0,58.0,29.98,NNE,26,0.0,-999.0,76,-99.99,,,-99.99,,2013-09-27 02:12:00,
2013-09-26 22:22:00,66.0,59.0,29.99,NNE,29,0.0,-999.0,77,-99.99,,,-99.99,,2013-09-27 02:22:00,
2013-09-26 22:43:00,65.0,58.0,29.99,NNE,12,0.0,-999.0,77,-99.99,,,-99.99,,2013-09-27 02:43:00,
2013-09-26 22:53:00,65.0,57.0,29.99,NNE,31,0.0,-999.0,76,-99.99,,,-99.99,,2013-09-27 02:53:00,
2013-09-26 23:12:00,65.0,57.0,30.00,North,5,0.0,-999.0,76,-99.99,,,-99.99,,2013-09-27 03:12:00,
2013-09-26 23:22:00,64.0,56.0,30.00,NNE,24,0.0,-999.0,75,-99.99,,,-99.99,,2013-09-27 03:22:00,
2013-09-26 23:44:00,64.0,56.0,30.00,NNE,28,0.0,-999.0,76,-99.99,,,-99.99,,2013-09-27 03:44:00,
2013-09-26 23:55:00,63.0,56.0,30.00,NE,34,0.0,-999.0,78,-99.99,,,-99.99,,2013-09-27 03:55:00,